Flag for United Kingdom Weather past 2 weeks in York, England, United Kingdom

Now
66 °F

Partly sunny.


Feels Like: 66 °F
Forecast: 58 / 71 °F
Wind: 14 mph from Northeast

Location: Linton-On-Ouse

Current Time: Sep 18, 2014 at 5:32:10 PM

Latest Report: Sep 18, 2014 at 4:50 PM


Visibility: 5 mi

Pressure: 29.89 "Hg

Humidity: 78%

Dew point: 59 °F

Location of YorkLocation

Historic Weather in York — Graph

°F

York temperature yesterday

Maximum temperature yesterday: 64 °F (at 4:50 PM)
Minimum temperature yesterday: 54 °F (at 3:50 AM)
Average temperature yesterday: 59 °F

Past Weeks' High & Low Weather Summary

 TemperatureHumidityPressure
High72 °F (Sep 5, 3:50 PM)100% (Sep 5, 4:50 AM)30.39 "Hg (Sep 5, 4:50 AM)
Low43 °F (Sep 8, 5:50 AM)43% (Sep 7, 2:50 PM)29.86 "Hg (Sep 18, 2:50 PM)
Average58 °F83%30.12 "Hg
* Reported Sep 3 3:50 PM — Sep 18 3:50 PM, York, Weather by CustomWeather, © 2014

Note: Actual official high and low records may vary slightly from our data, if they occured in-between our weather recording intervals... More about our weather records

Advertising

York weather history for previous 24 hours

 ConditionsComfort  
Time TempWeatherWind HumidityBarometerVisibility
3:50 PM
Sep 18
68 °FBroken clouds.13 mph78%29.86 "Hg4 mi
2:50 PM70 °FBroken clouds.10 mph73%29.86 "Hg5 mi
1:50 PM68 °FPartly sunny.7 mph78%29.89 "Hg4 mi
12:50 PM66 °FPartly sunny.6 mph83%29.89 "Hg4 mi
11:50 AM64 °FPartly sunny.5 mph83%29.89 "Hg4 mi
10:50 AM61 °FLow clouds.6 mph94%29.92 "Hg3 mi
9:50 AM61 °FDrizzle. Low clouds.6 mph94%29.92 "Hg2 mi
9:03 AM59 °FDrizzle. Low clouds.5 mph94%29.92 "Hg2 mi
8:50 AM59 °FFog.5 mph94%29.89 "Hg2 mi
7:50 AM59 °FFog.5 mph94%29.89 "Hg2 mi
7:35 AM59 °FFog.5 mph94%29.89 "Hg2 mi
6:50 AM59 °FFog.6 mph94%29.89 "Hg2 mi
5:50 AM59 °FLow clouds.6 mph94%29.89 "Hg3 mi
4:50 AM59 °FLow clouds.5 mph94%29.89 "Hg3 mi
3:50 AM59 °FLow clouds.5 mph94%29.89 "Hg3 mi
2:50 AM59 °FLow clouds.5 mph94%29.89 "Hg3 mi
1:50 AM59 °FLow clouds.6 mph94%29.92 "Hg3 mi
12:50 AM59 °FLow clouds.5 mph94%29.92 "Hg2 mi
11:50 PM
Sep 17
59 °FLow clouds.5 mph94%29.92 "Hg2 mi
10:50 PM59 °FLow clouds.6 mph94%29.92 "Hg2 mi
9:50 PM59 °FOvercast.5 mph94%29.92 "Hg2 mi
8:50 PM59 °FOvercast.6 mph94%29.92 "Hg2 mi
7:50 PM61 °FOvercast.6 mph88%29.92 "Hg4 mi
6:50 PM63 °FOvercast.7 mph83%29.92 "HgN/A
5:50 PM63 °FOvercast.6 mph83%29.92 "HgN/A
Weather by CustomWeather, © 2014

See weather overviewHow to use our weather pages